Location: Fauquembergues
(50.6005°N, 2.0987°E)
Time: 04:35:48
(UTC+00:00)

Iridium 4 Rocket - Pass Details

Date: 14 July 2020
Orbit: 583 x 906 km, 86.9° (Epoch: 06 August)

Event Time Altitude Azimuth Distance (km) Brightness Sun altitude
Exits shadow 00:24:12 27° 163° (SSE) 1,596 4.6 -17.5°
Maximum altitude 00:27:19 66° 89° (E) 906 3.8 -17.5°
Drops below altitude 10° 00:32:34 10° 8° (N) 2,347 7.3 -17.4°
Sets 00:34:50 0° 6° (N) 3,230 8.5 -17.3°
